Вернуться в каталог

STARLINK-32806

АктивенСвязьVLEO
NORAD 62735·PAYLOAD·🇺🇸 United States

Запущен Jan 21, 2025 с Cape Canaveral Space Force Station

Loading…

Ближайшие Пролёты (ближайшие 24 часа)

TLE

СвежийSource: CelesTrak SupGP

Эпоха: Sep 14, 2026, 21:03 UTC

1 62735C 25014A   26257.87756944 -.00017565  00000+0 -63623-3 0  2572
2 62735  42.9990 166.1411 0001348 264.3084 292.5234 15.27586673    19

Отслеживайте STARLINK-32806 в реальном времени с AllMySat

Download on the App Store